Regional Weather Roundup
Issued by NWS Sioux Falls, SD

Home | Current Version | Previous Version | Text Only | Print | Product List | Glossary On
Versions: 1 2 3 4 5 6 7 8 9 10 11 12 13 14 15 16 17 18 19 20 21 22 23 24 25 26 27 28 29 30 31 32 33 34 35 36 37 38 39 40 41 42 43 44 45 46 47 48 49 50
895
ASUS43 KFSD 271002
RWRFSD

WEATHER ROUNDUP FOR SE SOUTH DAKOTA/SW MINNESOTA/NW IOWA
NATIONAL WEATHER SERVICE SIOUX FALLS SD
500 AM CDT FRI MAY 27 2016

NOTE: "FAIR" INDICATES FEW OR NO CLOUDS BELOW 12,000 FEET WITH NO
SIGNIFICANT WEATHER AND OR OBSTRUCTIONS TO VISIBILITY.


SDZ038>040-050-052>070-271100-
SOUTHEAST SOUTH DAKOTA

CITY           SKY/WX    TMP DP  RH WIND       PRES   REMARKS
BROOKINGS      CLOUDY    57  55  93 E3        29.77F
CHAMBERLAIN    NOT AVBL
HURON          CLOUDY    56  55  97 E3        29.74F
MADISON        FAIR      55  55 100 NE7       29.78S
MITCHELL       CLOUDY    59  58  96 E6        29.74F
SIOUX FALLS    CLOUDY    56  54  93 CALM      29.75F
WINNER         PTSUNNY   57  52  83 N10       29.74F
YANKTON        CLOUDY    59  55  88 N5        29.71F
$$

MNZ071-072-080-081-089-090-097-098-271100-
SOUTHWEST MINNESOTA

CITY           SKY/WX    TMP DP  RH WIND       PRES   REMARKS
FAIRMONT       CLOUDY    63  54  72 S5G16     29.79F
JACKSON        CLOUDY    59  54  82 CALM      29.79F
LUVERNE        CLOUDY    57  52  82 SE5       29.78F
MARSHALL       CLOUDY    64  55  72 SW9       29.76F
MONTEVIDEO     CLOUDY    59  52  77 CALM      29.77F
PIPESTONE      MOCLDY    59  55  88 CALM      29.77F
REDWOOD FALLS  CLOUDY    61  56  83 S7        29.77F
TRACY          PTCLDY    62  57  83 SW9       29.77F
WINDOM         CLOUDY    61  55  82 CALM      29.79F
WORTHINGTON    PTCLDY    60  56  86 SE6       29.79F
$$

IAZ001>003-012>014-020>022-031-032-NEZ013-014-SDZ071-271100-
NORTHWEST IOWA

CITY           SKY/WX    TMP DP  RH WIND       PRES   REMARKS
ESTHERVILLE    CLOUDY    59  57  93 N3        29.78F
SIOUX CITY     CLOUDY    63  56  78 E7        29.75F
SPENCER        CLOUDY    58  55  90 SE3       29.78F
STORM LAKE     CLOUDY    61  55  82 SE7       29.78F
$$

ABBREVIATIONS USED IN REMARKS
   TC - TEMPERATURE IN CELSIUS
  WCI - WIND CHILL INDEX
   HX - HEAT INDEX
  VSB - VISIBILITY





USA.gov is the U.S. government's official web portal to all federal, state and local government web resources and services.